TimeEET,TemperatureF,Dew PointF,Humidity,Sea Level PressureIn,VisibilityMPH,Wind Direction,Wind SpeedMPH,Gust SpeedMPH,PrecipitationIn,Events,Conditions,WindDirDegrees,DateUTC
12:20 AM,46.4,32.0,57,30.09,-9999.0,NW,8.1,-,N/A,,Unknown,320,2012-11-09 22:20:00
12:50 AM,44.6,32.0,61,30.06,-9999.0,NW,8.1,-,N/A,,Unknown,320,2012-11-09 22:50:00
1:20 AM,46.4,30.2,53,30.06,-9999.0,NNW,10.4,-,N/A,,Unknown,330,2012-11-09 23:20:00
1:50 AM,46.4,30.2,53,30.06,-9999.0,NNW,10.4,-,N/A,,Unknown,330,2012-11-09 23:50:00
2:20 AM,44.6,32.0,61,30.06,-9999.0,NNW,9.2,-,N/A,,Unknown,330,2012-11-10 00:20:00
2:50 AM,46.4,30.2,53,30.09,-9999.0,North,11.5,-,N/A,,Unknown,350,2012-11-10 00:50:00
3:20 AM,44.6,30.2,57,30.06,-9999.0,NNW,10.4,-,N/A,,Unknown,330,2012-11-10 01:20:00
3:50 AM,44.6,30.2,57,30.06,-9999.0,NNW,12.7,-,N/A,,Unknown,340,2012-11-10 01:50:00
4:20 AM,44.6,30.2,57,30.09,-9999.0,NNW,10.4,-,N/A,,Unknown,330,2012-11-10 02:20:00
4:50 AM,44.6,30.2,57,30.09,-9999.0,NNW,11.5,-,N/A,,Unknown,330,2012-11-10 02:50:00
5:20 AM,42.8,30.2,61,30.09,-9999.0,NNW,11.5,-,N/A,,Unknown,330,2012-11-10 03:20:00
5:50 AM,41.0,30.2,65,30.09,-9999.0,NNW,11.5,-,N/A,,Unknown,330,2012-11-10 03:50:00
6:20 AM,42.8,30.2,61,30.09,-9999.0,NNW,10.4,-,N/A,,Unknown,330,2012-11-10 04:20:00
6:50 AM,42.8,30.2,61,30.09,-9999.0,North,10.4,-,N/A,,Unknown,350,2012-11-10 04:50:00
7:20 AM,41.0,30.2,65,30.12,-9999.0,NW,8.1,-,N/A,,Unknown,320,2012-11-10 05:20:00
7:50 AM,42.8,32.0,66,30.12,-9999.0,NW,10.4,-,N/A,,Clear,320,2012-11-10 05:50:00
8:50 AM,46.4,32.0,57,30.15,-9999.0,NW,9.2,-,N/A,,Clear,320,2012-11-10 06:50:00
9:50 AM,48.2,30.2,50,30.15,-9999.0,NNW,12.7,-,N/A,,Clear,330,2012-11-10 07:50:00
10:50 AM,50.0,32.0,50,30.18,-9999.0,WNW,10.4,-,N/A,,Clear,300,2012-11-10 08:50:00
11:50 AM,53.6,33.8,47,30.18,-9999.0,North,8.1,-,N/A,,Clear,350,2012-11-10 09:50:00
12:50 PM,55.4,32.0,41,30.15,-9999.0,NNW,10.4,-,N/A,,Clear,340,2012-11-10 10:50:00
1:50 PM,55.4,30.2,38,30.15,-9999.0,NNW,10.4,-,N/A,,Clear,340,2012-11-10 11:50:00
2:20 PM,55.4,30.2,38,30.15,-9999.0,NNW,8.1,-,N/A,,Unknown,340,2012-11-10 12:20:00
2:50 PM,57.2,30.2,36,30.15,-9999.0,NW,6.9,-,N/A,,Unknown,310,2012-11-10 12:50:00
3:20 PM,57.2,28.4,33,30.15,-9999.0,NW,6.9,-,N/A,,Unknown,320,2012-11-10 13:20:00
3:50 PM,55.4,30.2,38,30.15,-9999.0,North,8.1,-,N/A,,Unknown,360,2012-11-10 13:50:00
4:20 PM,55.4,30.2,38,30.15,-9999.0,North,5.8,-,N/A,,Unknown,360,2012-11-10 14:20:00
4:50 PM,53.6,30.2,41,30.15,-9999.0,NW,6.9,-,N/A,,Unknown,320,2012-11-10 14:50:00
5:20 PM,51.8,32.0,47,30.15,-9999.0,Variable,3.5,-,N/A,,Unknown,0,2012-11-10 15:20:00
5:50 PM,50.0,32.0,50,30.18,-9999.0,NW,5.8,-,N/A,,Unknown,310,2012-11-10 15:50:00
6:20 PM,48.2,32.0,54,30.18,-9999.0,North,4.6,-,N/A,,Unknown,10,2012-11-10 16:20:00
6:50 PM,46.4,32.0,57,30.18,-9999.0,NNW,5.8,-,N/A,,Unknown,340,2012-11-10 16:50:00
7:20 PM,46.4,32.0,57,30.21,-9999.0,Variable,3.5,-,N/A,,Unknown,0,2012-11-10 17:20:00
7:50 PM,44.6,32.0,61,30.21,-9999.0,Variable,1.2,-,N/A,,Unknown,0,2012-11-10 17:50:00
8:20 PM,44.6,32.0,61,30.21,-9999.0,NW,4.6,-,N/A,,Unknown,320,2012-11-10 18:20:00
8:50 PM,42.8,32.0,66,30.24,-9999.0,WNW,4.6,-,N/A,,Unknown,290,2012-11-10 18:50:00
9:20 PM,42.8,32.0,66,30.24,-9999.0,NW,4.6,-,N/A,,Unknown,310,2012-11-10 19:20:00
9:50 PM,41.0,32.0,70,30.24,-9999.0,NW,4.6,-,N/A,,Unknown,320,2012-11-10 19:50:00
10:20 PM,41.0,32.0,70,30.24,-9999.0,Variable,3.5,-,N/A,,Unknown,0,2012-11-10 20:20:00
10:50 PM,41.0,32.0,70,30.24,-9999.0,NNW,6.9,-,N/A,,Unknown,330,2012-11-10 20:50:00
11:20 PM,39.2,32.0,75,30.24,-9999.0,NW,4.6,-,N/A,,Unknown,320,2012-11-10 21:20:00
11:50 PM,39.2,32.0,75,30.24,-9999.0,NNW,6.9,-,N/A,,Unknown,340,2012-11-10 21:50:00